Weather History for State College, PA

Change the Weather History Date:

Wednesday, November 9, 2011

  Actual Average Record
Temperature  
Mean Temperature 50 °F -  
Max Temperature 64 °F 51 °F 72 °F (1975)
Min Temperature 35 °F 33 °F 16 °F (1991)
Degree Days  
Heating Degree Days 16    
Moisture  
Dew Point 35 °F    
Average Humidity 61    
Maximum Humidity 100    
Minimum Humidity 30    
Precipitation  
Precipitation 0.00 in - - ()
Sea Level Pressure  
Sea Level Pressure 30.05 in    
Wind  
Wind Speed 2 mph (South)    
Max Wind Speed 12 mph    
Max Gust Speed -    
Visibility 10 miles    
Events      
Averages and records for this station are not official NWS values.
T = Trace of Precipitation, MM = Missing Value Source: NWS Daily Summary

Daily Weather History Graph

Daily Weather History Graph

Search for Another Location

Airport:

Trip Planner

Search our weather history database for the weather conditions in past years. The results will help you decide how hot, cold, wet, or windy it might be!

Date:

Astronomy

Nov. 09, 2011 Rise Set
Actual Time 6:51 AM EST 4:58 PM EST
Civil Twilight 6:22 AM EST 5:27 PM EST
Nautical Twilight 5:49 AM EST 6:00 PM EST
Astronomical Twilight 5:17 AM EST 6:32 PM EST
Moon 4:09 PM EST (11/9) 5:44 AM EST (11/9)
Length of Visible Light 11h 05m
Length of Day
10h 07m
Waxing Gibbous, 99% of the Moon is Illuminated
Nov 9
Waxing Gibbous
Nov 10
Full
Nov 18
Last Quarter
Nov 25
New
Dec 2
First Quarter

Hourly Weather History & Observations

Time (EST) Temp. Dew Point Humidity Pressure Visibility Wind Dir Wind Speed Gust Speed Precip Events Conditions
12:15 AM 50.0 °F 35.6 °F 58% 30.16 in 10.0 mi Calm Calm - N/A   Clear
12:35 AM 50.0 °F 33.8 °F 54% 30.16 in 10.0 mi Calm Calm - N/A   Clear
12:55 AM 48.2 °F 33.8 °F 58% 30.15 in 10.0 mi Calm Calm - N/A   Clear
1:15 AM 48.2 °F 35.6 °F 62% 30.16 in 10.0 mi Calm Calm - N/A   Clear
1:35 AM 44.6 °F 35.6 °F 71% 30.16 in 10.0 mi Calm Calm - N/A   Clear
1:55 AM 44.6 °F 33.8 °F 66% 30.16 in 10.0 mi Calm Calm - N/A   Clear
2:15 AM 41.0 °F 33.8 °F 76% 30.16 in 10.0 mi Calm Calm - N/A   Clear
2:35 AM 44.6 °F 35.6 °F 71% 30.16 in 10.0 mi Calm Calm - N/A   Clear
2:55 AM 42.8 °F 35.6 °F 76% 30.15 in 10.0 mi Calm Calm - N/A   Clear
3:15 AM 41.0 °F 35.6 °F 81% 30.14 in 10.0 mi Calm Calm - N/A   Clear
3:35 AM 41.0 °F 35.6 °F 81% 30.14 in 10.0 mi Calm Calm - N/A   Clear
3:55 AM 39.2 °F 33.8 °F 81% 30.14 in 10.0 mi Calm Calm - N/A   Clear
4:15 AM 39.2 °F 33.8 °F 81% 30.13 in 10.0 mi Calm Calm - N/A   Clear
4:35 AM 37.4 °F 33.8 °F 87% 30.13 in 10.0 mi Calm Calm - N/A   Clear
4:55 AM 35.6 °F 35.6 °F 100% 30.14 in 10.0 mi Calm Calm - N/A   Clear
5:53 AM 37.4 °F 35.6 °F 93% 30.13 in 10.0 mi Calm Calm - N/A   Clear
6:53 AM 35.6 °F 35.6 °F 100% 30.14 in 10.0 mi Calm Calm - N/A   Clear
7:53 AM 37.4 °F 35.6 °F 93% 30.14 in 10.0 mi Calm Calm - N/A   Clear
8:53 AM 42.8 °F 39.2 °F 87% 30.14 in 10.0 mi Calm Calm - N/A   Clear
9:53 AM 50.0 °F 41.0 °F 71% 30.12 in 10.0 mi Calm Calm - N/A   Clear
10:53 AM 57.2 °F 37.4 °F 48% 30.10 in 10.0 mi SSE 5.8 mph - N/A   Clear
11:53 AM 60.8 °F 35.6 °F 39% 30.05 in 10.0 mi South 10.4 mph - N/A   Clear
12:53 PM 62.6 °F 32.0 °F 32% 30.02 in 10.0 mi South 9.2 mph - N/A   Clear
1:53 PM 62.6 °F 32.0 °F 32% 29.99 in 10.0 mi South 11.5 mph - N/A   Clear
2:53 PM 64.4 °F 32.0 °F 30% 29.98 in 10.0 mi SSW 8.1 mph - N/A   Clear
3:53 PM 62.6 °F 32.0 °F 32% 29.95 in 10.0 mi ESE 4.6 mph - N/A   Clear
4:53 PM 59.0 °F 32.0 °F 36% 29.95 in 10.0 mi SSE 6.9 mph - N/A   Clear
5:53 PM 57.2 °F 35.6 °F 44% 29.95 in 10.0 mi South 9.2 mph - N/A   Clear
6:53 PM 55.4 °F 35.6 °F 47% 29.95 in 10.0 mi SSE 5.8 mph - N/A   Clear
7:53 PM 55.4 °F 35.6 °F 47% 29.93 in 10.0 mi South 6.9 mph - N/A   Clear
8:53 PM 53.6 °F 35.6 °F 51% 29.92 in 10.0 mi South 8.1 mph - N/A   Clear
9:15 PM 53.6 °F 35.6 °F 51% 29.93 in 10.0 mi SSW 9.2 mph - N/A   Scattered Clouds
9:35 PM 53.6 °F 35.6 °F 51% 29.93 in 10.0 mi SSW 9.2 mph - N/A   Mostly Cloudy
9:53 PM 53.6 °F 35.6 °F 51% 29.93 in 10.0 mi South 9.2 mph - N/A   Mostly Cloudy
9:55 PM 53.6 °F 35.6 °F 51% 29.93 in 10.0 mi South 8.1 mph - N/A   Mostly Cloudy
10:15 PM 53.6 °F 35.6 °F 51% 29.93 in 10.0 mi South 8.1 mph - N/A   Overcast
10:35 PM 53.6 °F 35.6 °F 51% 29.92 in 10.0 mi SSW 8.1 mph - N/A   Overcast
10:55 PM 53.6 °F 37.4 °F 54% 29.92 in 10.0 mi SSW 5.8 mph - N/A   Overcast
11:15 PM 53.6 °F 37.4 °F 54% 29.92 in 10.0 mi SSW 5.8 mph - N/A   Overcast
11:35 PM 53.6 °F 37.4 °F 54% 29.92 in 10.0 mi SSW 3.5 mph - N/A   Overcast
11:55 PM 51.8 °F 37.4 °F 58% 29.91 in 10.0 mi Calm Calm - N/A   Mostly Cloudy